Верхоленск

Россия / Иркутская область     54°05′47″N   105°34′03″E
темп.,
°C
ветер,
м/с
пор.,
м/с
влажн.,
%
обл.,
%
осадки,
мм/ч
давл.,
гПа
погр.,
м
12 мая, ср
ср1223:00+4зюз21749 0.1 101411
02:00+2зсз228393 0.1 101413
05:00+2сз1188100 0.1 101316
08:00+3сз1591100 1.2 1013449
11:00+4ссз3576100 0.9 1013879
14:00+7сз464491 1.2 10122014
17:00+8сз5632100 0.0 10122581
20:00+5с36415 0.0 1013362
13 мая, чт
чт1323:000сз226266 0.0 101640
02:00−2зсз21735 0.0 101714
05:00−3сз22775 0.0 101719
08:00+2ссз35465 0.0 10161281
11:00+5ссз3534100 0.0 10152253
14:00+7ссз4632100 0.2 10142762
17:00+8ссз4527100 0.0 10142834
20:00+5с48445 0.0 1016796
14 мая, пт
пт1423:000зсз22700 0.0 101821
02:00−2зсз11805 0.0 101911
05:00−3з11845 0.0 101910
08:00+5ссз12520 0.0 1018422
11:00+11всв11331 0.0 10161359
14:00+14юв11230 0.0 10131708
17:00+15ююв23220 0.0 10112261
20:00+11ю22345 0.0 101118
15 мая, сб
сб1523:00+5юз115034 0.0 101311
02:00+3юз215742 0.0 101412
05:00+2юз1155100 0.0 101411
08:00+8сз364017 0.0 1014828
11:00+8зсз5761100 0.0 10161338
14:00+11зсз6928100 0.1 10141973
17:00+10зсз71035100 0.0 10141939
20:00+6з51471100 0.0 10161278
16 мая, вс
вс1623:00+5з61393100 0.1 10161200
02:00+5з31193100 0.3 10161196
05:00+6з3991100 0.6 10151128
08:00+8з51487100 0.8 10141145
11:00+13з71659100 0.0 10111651
14:00+17з61240100 0.0 10092373
17:00+14сз41258100 0.1 10091514
20:00+12з116864 0.1 100810